Year,Month,Day,Hour,Minute,Value (Times are PST for temperature in C)
2010,11,07,00,00,9.80
2010,11,07,00,01,9.80
2010,11,07,00,02,9.80
2010,11,07,00,03,9.80
2010,11,07,00,04,9.70
2010,11,07,00,05,9.70
2010,11,07,00,06,9.70
2010,11,07,00,07,9.70
2010,11,07,00,08,9.70
2010,11,07,00,09,9.70
2010,11,07,00,10,9.70
2010,11,07,00,11,9.70
2010,11,07,00,12,9.70
2010,11,07,00,17,9.80
2010,11,07,00,18,9.80
2010,11,07,00,19,9.80
2010,11,07,00,20,9.80
2010,11,07,00,21,9.80
2010,11,07,00,22,9.80
2010,11,07,00,23,9.80
2010,11,07,00,24,9.80
2010,11,07,00,25,9.90
2010,11,07,00,26,9.90
2010,11,07,00,27,9.90
2010,11,07,00,28,9.90
2010,11,07,00,29,9.90
2010,11,07,00,30,9.90
2010,11,07,00,31,9.90
2010,11,07,00,32,9.90
2010,11,07,00,33,9.90
2010,11,07,00,34,9.90
2010,11,07,00,35,10.00
2010,11,07,00,36,10.00
2010,11,07,00,37,10.00
2010,11,07,00,38,10.00
2010,11,07,00,39,10.00
2010,11,07,00,40,10.00
2010,11,07,00,41,10.10
2010,11,07,00,42,10.00
2010,11,07,00,43,10.00
2010,11,07,00,44,10.00
2010,11,07,00,45,10.00
2010,11,07,00,46,10.00
2010,11,07,00,47,10.00
2010,11,07,00,48,10.00
2010,11,07,00,49,10.00
2010,11,07,00,50,10.00
2010,11,07,00,51,10.00
2010,11,07,00,52,10.00
2010,11,07,00,53,10.00
2010,11,07,00,54,10.00
2010,11,07,00,55,10.00
2010,11,07,00,56,10.00
2010,11,07,00,57,10.00
2010,11,07,00,58,10.00
2010,11,07,00,59,10.00
2010,11,07,01,00,10.00
2010,11,07,01,01,9.90
2010,11,07,01,02,10.00
2010,11,07,01,03,10.00
2010,11,07,01,04,10.00
2010,11,07,01,05,10.00
2010,11,07,01,06,10.00
2010,11,07,01,07,10.00
2010,11,07,01,08,10.00
2010,11,07,01,09,10.00
2010,11,07,01,10,10.00
2010,11,07,01,11,10.00
2010,11,07,01,12,10.00
2010,11,07,01,13,10.00
2010,11,07,01,14,10.00
2010,11,07,01,15,10.00
2010,11,07,01,16,10.00
2010,11,07,01,17,10.00
2010,11,07,01,18,10.00
2010,11,07,01,19,10.00
2010,11,07,01,20,10.10
2010,11,07,01,21,10.10
2010,11,07,01,22,10.10
2010,11,07,01,23,10.10
2010,11,07,01,24,10.10
2010,11,07,01,25,10.10
2010,11,07,01,26,10.10
2010,11,07,01,27,10.10
2010,11,07,01,28,10.10
2010,11,07,01,29,10.10
2010,11,07,01,30,10.10
2010,11,07,01,31,10.10
2010,11,07,01,32,10.10
2010,11,07,01,33,10.10
2010,11,07,01,34,10.10
2010,11,07,01,35,10.10
2010,11,07,01,36,10.10
2010,11,07,01,37,10.10
2010,11,07,01,38,10.10
2010,11,07,01,39,10.10
2010,11,07,01,40,10.10
2010,11,07,01,41,10.10
2010,11,07,01,42,10.10
2010,11,07,01,43,10.00
2010,11,07,01,44,10.00
2010,11,07,01,45,10.00
2010,11,07,01,46,10.00
2010,11,07,01,47,9.90
2010,11,07,01,48,9.90
2010,11,07,01,49,9.90
2010,11,07,01,50,9.90
2010,11,07,01,51,9.80
2010,11,07,01,52,9.80
2010,11,07,01,53,9.80
2010,11,07,01,54,9.80
2010,11,07,01,55,9.80
2010,11,07,01,56,9.80
2010,11,07,01,57,9.80
2010,11,07,01,58,9.80
2010,11,07,01,59,9.80
2010,11,07,02,17,9.30
2010,11,07,02,18,9.30
2010,11,07,02,19,9.30
2010,11,07,02,20,9.30
2010,11,07,02,21,9.20
2010,11,07,02,22,9.20
2010,11,07,02,23,9.20
2010,11,07,02,24,9.20
2010,11,07,02,25,9.20
2010,11,07,02,26,9.20
2010,11,07,02,27,9.20
2010,11,07,02,28,9.10
2010,11,07,02,29,9.10
2010,11,07,02,30,9.10
2010,11,07,02,31,9.10
2010,11,07,02,32,9.10
2010,11,07,02,33,9.10
2010,11,07,02,34,9.10
2010,11,07,02,35,9.10
2010,11,07,02,36,9.10
2010,11,07,02,37,9.10
2010,11,07,02,38,9.10
2010,11,07,02,39,9.10
2010,11,07,02,40,9.10
2010,11,07,02,41,9.10
2010,11,07,02,42,9.10
2010,11,07,02,43,9.10
2010,11,07,02,44,9.10
2010,11,07,02,45,9.00
2010,11,07,02,46,9.00
2010,11,07,02,47,8.90
2010,11,07,02,48,8.90
2010,11,07,02,49,8.90
2010,11,07,02,50,8.90
2010,11,07,02,51,8.80
2010,11,07,02,52,8.80
2010,11,07,02,53,8.80
2010,11,07,02,54,8.80
2010,11,07,02,55,8.80
2010,11,07,02,56,8.80
2010,11,07,02,57,8.70
2010,11,07,02,58,8.70
2010,11,07,02,59,8.70
2010,11,07,03,00,8.70
2010,11,07,03,01,8.70
2010,11,07,03,02,8.70
2010,11,07,03,03,8.70
2010,11,07,03,04,8.70
2010,11,07,03,05,8.60
2010,11,07,03,06,8.60
2010,11,07,03,07,8.60
2010,11,07,03,08,8.60
2010,11,07,03,09,8.60
2010,11,07,03,10,8.60
2010,11,07,03,11,8.60
2010,11,07,03,12,8.60
2010,11,07,03,13,8.60
2010,11,07,03,14,8.60
2010,11,07,03,15,8.60
2010,11,07,03,16,8.60
2010,11,07,03,17,8.60
2010,11,07,03,18,8.60
2010,11,07,03,19,8.50
2010,11,07,03,20,8.50
2010,11,07,03,21,8.50
2010,11,07,03,22,8.50
2010,11,07,03,23,8.50
2010,11,07,03,24,8.40
2010,11,07,03,25,8.40
2010,11,07,03,26,8.40
2010,11,07,03,27,8.40
2010,11,07,03,28,8.40
2010,11,07,03,29,8.40
2010,11,07,03,30,8.40
2010,11,07,03,31,8.40
2010,11,07,03,32,8.40
2010,11,07,03,33,8.40
2010,11,07,03,34,8.40
2010,11,07,03,35,8.40
2010,11,07,03,36,8.30
2010,11,07,03,37,8.30
2010,11,07,03,38,8.30
2010,11,07,03,39,8.30
2010,11,07,03,40,8.30
2010,11,07,03,41,8.30
2010,11,07,03,42,8.30
2010,11,07,03,43,8.30
2010,11,07,03,44,8.30
2010,11,07,03,45,8.30
2010,11,07,03,46,8.30
2010,11,07,03,47,8.30
2010,11,07,03,48,8.30
2010,11,07,03,49,8.30
2010,11,07,03,50,8.30
2010,11,07,03,51,8.20
2010,11,07,03,52,8.20
2010,11,07,03,53,8.20
2010,11,07,03,54,8.20
2010,11,07,03,55,8.20
2010,11,07,03,56,8.20
2010,11,07,03,57,8.20
2010,11,07,03,58,8.20
2010,11,07,03,59,8.20
2010,11,07,04,00,8.20
2010,11,07,04,01,8.20
2010,11,07,04,02,8.10
2010,11,07,04,03,8.10
2010,11,07,04,04,8.10
2010,11,07,04,05,8.10
2010,11,07,04,06,8.10
2010,11,07,04,07,8.10
2010,11,07,04,08,8.10
2010,11,07,04,09,8.10
2010,11,07,04,10,8.10
2010,11,07,04,11,8.10
2010,11,07,04,12,8.10
2010,11,07,04,13,8.10
2010,11,07,04,14,8.10
2010,11,07,04,15,8.10
2010,11,07,04,16,8.10
2010,11,07,04,17,8.10
2010,11,07,04,18,8.10
2010,11,07,04,19,8.00
2010,11,07,04,20,8.00
2010,11,07,04,21,7.90
2010,11,07,04,22,7.90
2010,11,07,04,23,7.90
2010,11,07,04,24,7.90
2010,11,07,04,25,7.90
2010,11,07,04,26,7.90
2010,11,07,04,27,7.90
2010,11,07,04,28,7.90
2010,11,07,04,29,7.80
2010,11,07,04,30,7.80
2010,11,07,04,31,7.80
2010,11,07,04,32,7.80
2010,11,07,04,33,7.80
2010,11,07,04,34,7.80
2010,11,07,04,35,7.80
2010,11,07,04,36,7.70
2010,11,07,04,37,7.70
2010,11,07,04,38,7.70
2010,11,07,04,39,7.70
2010,11,07,04,40,7.70
2010,11,07,04,41,7.60
2010,11,07,04,42,7.60
2010,11,07,04,43,7.60
2010,11,07,04,44,7.60
2010,11,07,04,45,7.60
2010,11,07,04,46,7.60
2010,11,07,04,47,7.60
2010,11,07,04,48,7.60
2010,11,07,04,49,7.60
2010,11,07,04,50,7.60
2010,11,07,04,51,7.60
2010,11,07,04,52,7.60
2010,11,07,04,53,7.60
2010,11,07,04,54,7.50
2010,11,07,04,55,7.50
2010,11,07,04,56,7.50
2010,11,07,04,57,7.50
2010,11,07,04,58,7.50
2010,11,07,04,59,7.50
2010,11,07,05,00,7.50
2010,11,07,05,01,7.50
2010,11,07,05,02,7.50
2010,11,07,05,03,7.50
2010,11,07,05,04,7.50
2010,11,07,05,05,7.50
2010,11,07,05,06,7.50
2010,11,07,05,07,7.50
2010,11,07,05,08,7.50
2010,11,07,05,09,7.50
2010,11,07,05,10,7.50
2010,11,07,05,11,7.50
2010,11,07,05,12,7.50
2010,11,07,05,13,7.50
2010,11,07,05,14,7.50
2010,11,07,05,15,7.50
2010,11,07,05,16,7.50
2010,11,07,05,17,7.50
2010,11,07,05,18,7.50
2010,11,07,05,19,7.50
2010,11,07,05,20,7.50
2010,11,07,05,21,7.50
2010,11,07,05,22,7.50
2010,11,07,05,23,7.50
2010,11,07,05,24,7.50
2010,11,07,05,25,7.50
2010,11,07,05,26,7.50
2010,11,07,05,27,7.50
2010,11,07,05,28,7.50
2010,11,07,05,29,7.50
2010,11,07,05,30,7.50
2010,11,07,05,31,7.60
2010,11,07,05,32,7.60
2010,11,07,05,33,7.60
2010,11,07,05,34,7.60
2010,11,07,05,35,7.60
2010,11,07,05,36,7.60
2010,11,07,05,37,7.60
2010,11,07,05,38,7.60
2010,11,07,05,39,7.70
2010,11,07,05,40,7.70
2010,11,07,05,41,7.70
2010,11,07,05,42,7.70
2010,11,07,05,43,7.70
2010,11,07,05,44,7.70
2010,11,07,05,45,7.70
2010,11,07,05,46,7.70
2010,11,07,05,47,7.70
2010,11,07,05,48,7.70
2010,11,07,05,49,7.70
2010,11,07,05,50,7.70
2010,11,07,05,51,7.70
2010,11,07,05,52,7.70
2010,11,07,05,53,7.70
2010,11,07,05,54,7.60
2010,11,07,05,55,7.60
2010,11,07,05,56,7.60
2010,11,07,05,57,7.60
2010,11,07,05,58,7.60
2010,11,07,05,59,7.60
2010,11,07,06,00,7.60
2010,11,07,06,01,7.60
2010,11,07,06,02,7.60
2010,11,07,06,03,7.60
2010,11,07,06,04,7.60
2010,11,07,06,05,7.60
2010,11,07,06,06,7.50
2010,11,07,06,07,7.50
2010,11,07,06,08,7.50
2010,11,07,06,09,7.50
2010,11,07,06,10,7.50
2010,11,07,06,11,7.50
2010,11,07,06,12,7.40
2010,11,07,06,13,7.40
2010,11,07,06,14,7.40
2010,11,07,06,15,7.40
2010,11,07,06,16,7.40
2010,11,07,06,17,7.40
2010,11,07,06,18,7.40
2010,11,07,06,19,7.40
2010,11,07,06,20,7.30
2010,11,07,06,21,7.30
2010,11,07,06,22,7.40
2010,11,07,06,23,7.40
2010,11,07,06,24,7.40
2010,11,07,06,25,7.40
2010,11,07,06,26,7.40
2010,11,07,06,27,7.40
2010,11,07,06,28,7.40
2010,11,07,06,29,7.40
2010,11,07,06,30,7.40
2010,11,07,06,31,7.40
2010,11,07,06,32,7.40
2010,11,07,06,33,7.40
2010,11,07,06,34,7.50
2010,11,07,06,35,7.50
2010,11,07,06,36,7.50
2010,11,07,06,37,7.50
2010,11,07,06,38,7.50
2010,11,07,06,39,7.50
2010,11,07,06,40,7.50
2010,11,07,06,41,7.60
2010,11,07,06,42,7.60
2010,11,07,06,43,7.60
2010,11,07,06,44,7.60
2010,11,07,06,45,7.60
2010,11,07,06,46,7.60
2010,11,07,06,47,7.60
2010,11,07,06,48,7.60
2010,11,07,06,49,7.60
2010,11,07,06,50,7.60
2010,11,07,06,51,7.60
2010,11,07,06,52,7.60
2010,11,07,06,53,7.60
2010,11,07,06,54,7.60
2010,11,07,06,55,7.60
2010,11,07,06,56,7.60
2010,11,07,06,57,7.60
2010,11,07,06,58,7.60
2010,11,07,06,59,7.60
2010,11,07,07,00,7.60
2010,11,07,07,01,7.60
2010,11,07,07,02,7.60
2010,11,07,07,03,7.60
2010,11,07,07,04,7.60
2010,11,07,07,05,7.60
2010,11,07,07,06,7.60
2010,11,07,07,07,7.60
2010,11,07,07,08,7.60
2010,11,07,07,09,7.60
2010,11,07,07,10,7.60
2010,11,07,07,11,7.60
2010,11,07,07,12,7.60
2010,11,07,07,13,7.60
2010,11,07,07,14,7.50
2010,11,07,07,15,7.50
2010,11,07,07,16,7.50
2010,11,07,07,17,7.50
2010,11,07,07,18,7.50
2010,11,07,07,19,7.50
2010,11,07,07,20,7.50
2010,11,07,07,21,7.40
2010,11,07,07,22,7.40
2010,11,07,07,23,7.40
2010,11,07,07,24,7.40
2010,11,07,07,25,7.40
2010,11,07,07,26,7.40
2010,11,07,07,27,7.40
2010,11,07,07,28,7.40
2010,11,07,07,29,7.40
2010,11,07,07,30,7.40
2010,11,07,07,31,7.40
2010,11,07,07,32,7.40
2010,11,07,07,33,7.40
2010,11,07,07,34,7.40
2010,11,07,07,35,7.40
2010,11,07,07,36,7.40
2010,11,07,07,37,7.40
2010,11,07,07,38,7.40
2010,11,07,07,39,7.30
2010,11,07,07,40,7.30
2010,11,07,07,41,7.30
2010,11,07,07,42,7.30
2010,11,07,07,43,7.30
2010,11,07,07,44,7.30
2010,11,07,07,45,7.30
2010,11,07,07,46,7.40
2010,11,07,07,47,7.40
2010,11,07,07,48,7.40
2010,11,07,07,49,7.40
2010,11,07,07,50,7.40
2010,11,07,07,51,7.40
2010,11,07,07,52,7.40
2010,11,07,07,53,7.40
2010,11,07,07,54,7.40
2010,11,07,07,55,7.50
2010,11,07,07,56,7.50
2010,11,07,07,57,7.50
2010,11,07,07,58,7.50
2010,11,07,07,59,7.50
2010,11,07,08,00,7.50
2010,11,07,08,01,7.50
2010,11,07,08,02,7.50
2010,11,07,08,03,7.50
2010,11,07,08,04,7.50
2010,11,07,08,05,7.50
2010,11,07,08,06,7.50
2010,11,07,08,07,7.50
2010,11,07,08,08,7.50
2010,11,07,08,09,7.60
2010,11,07,08,10,7.60
2010,11,07,08,11,7.60
2010,11,07,08,12,7.60
2010,11,07,08,13,7.60
2010,11,07,08,14,7.60
2010,11,07,08,15,7.60
2010,11,07,08,16,7.60
2010,11,07,08,17,7.60
2010,11,07,08,18,7.60
2010,11,07,08,19,7.60
2010,11,07,08,20,7.60
2010,11,07,08,21,7.60
2010,11,07,08,22,7.60
2010,11,07,08,23,7.60
2010,11,07,08,24,7.60
2010,11,07,08,25,7.60
2010,11,07,08,26,7.60
2010,11,07,08,27,7.60
2010,11,07,08,28,7.60
2010,11,07,08,29,7.60
2010,11,07,08,30,7.60
2010,11,07,08,31,7.60
2010,11,07,08,32,7.70
2010,11,07,08,33,7.70
2010,11,07,08,34,7.70
2010,11,07,08,35,7.70
2010,11,07,08,36,7.70
2010,11,07,08,37,7.70
2010,11,07,08,38,7.70
2010,11,07,08,39,7.70
2010,11,07,08,40,7.70
2010,11,07,08,41,7.70
2010,11,07,08,42,7.70
2010,11,07,08,43,7.70
2010,11,07,08,44,7.70
2010,11,07,08,45,7.70
2010,11,07,08,46,7.70
2010,11,07,08,47,7.70
2010,11,07,08,48,7.70
2010,11,07,08,49,7.70
2010,11,07,08,50,7.70
2010,11,07,08,51,7.70
2010,11,07,08,52,7.70
2010,11,07,08,53,7.70
2010,11,07,08,54,7.70
2010,11,07,08,55,7.70
2010,11,07,08,56,7.70
2010,11,07,08,57,7.70
2010,11,07,08,58,7.70
2010,11,07,08,59,7.70
2010,11,07,09,00,7.70
2010,11,07,09,01,7.70
2010,11,07,09,02,7.70
2010,11,07,09,03,7.70
2010,11,07,09,04,7.80
2010,11,07,09,05,7.80
2010,11,07,09,06,7.80
2010,11,07,09,07,7.80
2010,11,07,09,08,7.80
2010,11,07,09,09,7.80
2010,11,07,09,10,7.80
2010,11,07,09,11,7.80
2010,11,07,09,12,7.80
2010,11,07,09,13,7.80
2010,11,07,09,14,7.80
2010,11,07,09,15,7.80
2010,11,07,09,16,7.80
2010,11,07,09,17,7.80
2010,11,07,09,18,7.80
2010,11,07,09,19,7.80
2010,11,07,09,20,7.80
2010,11,07,09,21,7.80
2010,11,07,09,22,7.80
2010,11,07,09,23,7.80
2010,11,07,09,24,7.80
2010,11,07,09,25,7.80
2010,11,07,09,26,7.80
2010,11,07,09,27,7.80
2010,11,07,09,28,7.80
2010,11,07,09,29,7.80
2010,11,07,09,30,7.80
2010,11,07,09,31,7.80
2010,11,07,09,32,7.80
2010,11,07,09,33,7.80
2010,11,07,09,34,7.80
2010,11,07,09,35,7.90
2010,11,07,09,36,8.00
2010,11,07,09,37,8.00
2010,11,07,09,38,8.10
2010,11,07,09,39,8.20
2010,11,07,09,40,8.20
2010,11,07,09,41,8.20
2010,11,07,09,42,8.30
2010,11,07,09,43,8.30
2010,11,07,09,44,8.40
2010,11,07,09,45,8.40
2010,11,07,09,46,8.50
2010,11,07,09,47,8.40
2010,11,07,09,48,8.40
2010,11,07,09,49,8.40
2010,11,07,09,50,8.40
2010,11,07,09,51,8.40
2010,11,07,09,52,8.40
2010,11,07,09,53,8.40
2010,11,07,09,54,8.40
2010,11,07,09,55,8.50
2010,11,07,09,56,8.50
2010,11,07,09,57,8.50
2010,11,07,09,58,8.50
2010,11,07,09,59,8.50
2010,11,07,10,00,8.50
2010,11,07,10,01,8.40
2010,11,07,10,02,8.40
2010,11,07,10,03,8.40
2010,11,07,10,04,8.40
2010,11,07,10,05,8.40
2010,11,07,10,06,8.40
2010,11,07,10,07,8.40
2010,11,07,10,08,8.40
2010,11,07,10,09,8.40
2010,11,07,10,10,8.40
2010,11,07,10,11,8.40
2010,11,07,10,12,8.40
2010,11,07,10,13,8.40
2010,11,07,10,14,8.40
2010,11,07,10,15,8.40
2010,11,07,10,16,8.40
2010,11,07,10,17,8.40
2010,11,07,10,18,8.50
2010,11,07,10,19,8.50
2010,11,07,10,20,8.50
2010,11,07,10,21,8.50
2010,11,07,10,22,8.60
2010,11,07,10,23,8.60
2010,11,07,10,24,8.60
2010,11,07,10,25,8.60
2010,11,07,10,26,8.60
2010,11,07,10,27,8.60
2010,11,07,10,28,8.60
2010,11,07,10,29,8.60
2010,11,07,10,30,8.60
2010,11,07,10,31,8.60
2010,11,07,10,32,8.70
2010,11,07,10,33,8.70
2010,11,07,10,34,8.70
2010,11,07,10,35,8.70
2010,11,07,10,36,8.70
2010,11,07,10,37,8.80
2010,11,07,10,38,8.80
2010,11,07,10,39,8.80
2010,11,07,10,40,8.80
2010,11,07,10,41,8.80
2010,11,07,10,42,8.80
2010,11,07,10,43,8.80
2010,11,07,10,44,8.80
2010,11,07,10,45,8.80
2010,11,07,10,46,8.80
2010,11,07,10,47,8.80
2010,11,07,10,48,8.70
2010,11,07,10,49,8.80
2010,11,07,10,50,8.70
2010,11,07,10,51,8.70
2010,11,07,10,52,8.70
2010,11,07,10,53,8.70
2010,11,07,10,54,8.70
2010,11,07,10,55,8.70
2010,11,07,10,56,8.70
2010,11,07,10,57,8.70
2010,11,07,10,58,8.70
2010,11,07,10,59,8.70
2010,11,07,11,00,8.70
2010,11,07,11,01,8.70
2010,11,07,11,02,8.70
2010,11,07,11,03,8.70
2010,11,07,11,04,8.70
2010,11,07,11,05,8.70
2010,11,07,11,06,8.70
2010,11,07,11,07,8.70
2010,11,07,11,08,8.70
2010,11,07,11,09,8.70
2010,11,07,11,10,8.70
2010,11,07,11,11,8.70
2010,11,07,11,12,8.70
2010,11,07,11,13,8.70
2010,11,07,11,14,8.70
2010,11,07,11,15,8.70
2010,11,07,11,16,8.70
2010,11,07,11,17,8.70
2010,11,07,11,18,8.70
2010,11,07,11,19,8.70
2010,11,07,11,20,8.70
2010,11,07,11,21,8.70
2010,11,07,11,22,8.70
2010,11,07,11,23,8.70
2010,11,07,11,24,8.70
2010,11,07,11,25,8.70
2010,11,07,11,26,8.70
2010,11,07,11,27,8.70
2010,11,07,11,28,8.70
2010,11,07,11,29,8.70
2010,11,07,11,30,8.70
2010,11,07,11,31,8.70
2010,11,07,11,32,8.70
2010,11,07,11,33,8.80
2010,11,07,11,34,8.80
2010,11,07,11,35,8.80
2010,11,07,11,36,8.80
2010,11,07,11,37,8.80
2010,11,07,11,38,8.80
2010,11,07,11,39,8.80
2010,11,07,11,40,8.80
2010,11,07,11,41,8.90
2010,11,07,11,42,8.90
2010,11,07,11,43,8.90
2010,11,07,11,44,8.90
2010,11,07,11,45,8.90
2010,11,07,11,46,8.90
2010,11,07,11,47,8.90
2010,11,07,11,48,8.90
2010,11,07,11,49,8.90
2010,11,07,11,50,8.90
2010,11,07,11,51,8.90
2010,11,07,11,52,8.90
2010,11,07,11,53,8.90
2010,11,07,11,54,8.90
2010,11,07,11,55,8.90
2010,11,07,11,56,8.90
2010,11,07,11,57,8.90
2010,11,07,11,58,8.90
2010,11,07,11,59,8.90
2010,11,07,12,00,8.90
2010,11,07,12,01,8.90
2010,11,07,12,02,8.90
2010,11,07,12,03,8.90
2010,11,07,12,04,8.90
2010,11,07,12,05,9.00
2010,11,07,12,06,9.00
2010,11,07,12,07,9.10
2010,11,07,12,08,9.10
2010,11,07,12,09,9.20
2010,11,07,12,10,9.20
2010,11,07,12,11,9.30
2010,11,07,12,12,9.40
2010,11,07,12,13,9.40
2010,11,07,12,14,9.40
2010,11,07,12,15,9.40
2010,11,07,12,16,9.40
2010,11,07,12,17,9.50
2010,11,07,12,18,9.50
2010,11,07,12,19,9.60
2010,11,07,12,20,9.60
2010,11,07,12,21,9.60
2010,11,07,12,22,9.70
2010,11,07,12,23,9.80
2010,11,07,12,24,9.80
2010,11,07,12,25,9.90
2010,11,07,12,26,10.00
2010,11,07,12,27,10.10
2010,11,07,12,28,10.10
2010,11,07,12,29,10.10
2010,11,07,12,30,10.00
2010,11,07,12,31,9.90
2010,11,07,12,32,9.90
2010,11,07,12,33,9.90
2010,11,07,12,34,9.90
2010,11,07,12,35,9.90
2010,11,07,12,36,9.90
2010,11,07,12,37,9.90
2010,11,07,12,38,10.00
2010,11,07,12,39,10.00
2010,11,07,12,40,10.10
2010,11,07,12,41,10.10
2010,11,07,12,42,10.20
2010,11,07,12,43,10.20
2010,11,07,12,44,10.30
2010,11,07,12,45,10.30
2010,11,07,12,46,10.40
2010,11,07,12,47,10.50
2010,11,07,12,48,10.50
2010,11,07,12,49,10.60
2010,11,07,12,50,10.60
2010,11,07,12,51,10.70
2010,11,07,12,52,10.70
2010,11,07,12,53,10.70
2010,11,07,12,54,10.70
2010,11,07,12,55,10.80
2010,11,07,12,56,10.80
2010,11,07,12,57,10.80
2010,11,07,12,58,10.80
2010,11,07,12,59,10.80
2010,11,07,13,00,10.90
2010,11,07,13,01,10.90
2010,11,07,13,02,11.00
2010,11,07,13,03,11.10
2010,11,07,13,04,11.10
2010,11,07,13,05,11.10
2010,11,07,13,06,11.10
2010,11,07,13,07,11.10
2010,11,07,13,08,11.10
2010,11,07,13,09,11.10
2010,11,07,13,10,11.10
2010,11,07,13,11,11.20
2010,11,07,13,12,11.20
2010,11,07,13,13,11.20
2010,11,07,13,14,11.30
2010,11,07,13,15,11.30
2010,11,07,13,16,11.30
2010,11,07,13,17,11.30
2010,11,07,13,18,11.30
2010,11,07,13,19,11.30
2010,11,07,13,20,11.30
2010,11,07,13,21,11.30
2010,11,07,13,22,11.30
2010,11,07,13,23,11.20
2010,11,07,13,24,11.20
2010,11,07,13,25,11.20
2010,11,07,13,26,11.20
2010,11,07,13,27,11.10
2010,11,07,13,28,11.10
2010,11,07,13,29,11.00
2010,11,07,13,30,11.00
2010,11,07,13,31,11.00
2010,11,07,13,32,10.90
2010,11,07,13,33,10.90
2010,11,07,13,34,10.90
2010,11,07,13,35,10.80
2010,11,07,13,36,10.80
2010,11,07,13,37,10.80
2010,11,07,13,38,10.80
2010,11,07,13,39,10.80
2010,11,07,13,40,10.80
2010,11,07,13,41,10.70
2010,11,07,13,42,10.70
2010,11,07,13,43,10.70
2010,11,07,13,44,10.70
2010,11,07,13,45,10.70
2010,11,07,13,46,10.60
2010,11,07,13,47,10.50
2010,11,07,13,48,10.50
2010,11,07,13,49,10.50
2010,11,07,13,50,10.50
2010,11,07,13,51,10.50
2010,11,07,13,52,10.50
2010,11,07,13,53,10.40
2010,11,07,13,54,10.40
2010,11,07,13,55,10.40
2010,11,07,13,56,10.40
2010,11,07,13,57,10.40
2010,11,07,13,58,10.30
2010,11,07,13,59,10.30
2010,11,07,14,00,10.30
2010,11,07,14,01,10.20
2010,11,07,14,02,10.20
2010,11,07,14,03,10.10
2010,11,07,14,04,10.10
2010,11,07,14,05,10.00
2010,11,07,14,06,10.00
2010,11,07,14,07,9.90
2010,11,07,14,08,9.90
2010,11,07,14,09,9.90
2010,11,07,14,10,9.90
2010,11,07,14,11,9.90
2010,11,07,14,12,9.80
2010,11,07,14,13,9.80
2010,11,07,14,14,9.80
2010,11,07,14,15,9.70
2010,11,07,14,16,9.70
2010,11,07,14,17,9.70
2010,11,07,14,18,9.70
2010,11,07,14,19,9.70
2010,11,07,14,20,9.70
2010,11,07,14,21,9.70
2010,11,07,14,22,9.60
2010,11,07,14,23,9.50
2010,11,07,14,24,9.50
2010,11,07,14,25,9.40
2010,11,07,14,26,9.40
2010,11,07,14,27,9.30
2010,11,07,14,28,9.30
2010,11,07,14,29,9.20
2010,11,07,14,30,9.20
2010,11,07,14,31,9.10
2010,11,07,14,32,9.10
2010,11,07,14,33,9.10
2010,11,07,14,34,9.00
2010,11,07,14,35,9.00
2010,11,07,14,36,8.90
2010,11,07,14,37,8.90
2010,11,07,14,38,8.80
2010,11,07,14,39,8.80
2010,11,07,14,40,8.80
2010,11,07,14,41,8.80
2010,11,07,14,42,8.80
2010,11,07,14,43,8.80
2010,11,07,14,44,8.80
2010,11,07,14,45,8.80
2010,11,07,14,46,8.80
2010,11,07,14,47,8.80
2010,11,07,14,48,8.70
2010,11,07,14,49,8.70
2010,11,07,14,50,8.70
2010,11,07,14,51,8.70
2010,11,07,14,52,8.80
2010,11,07,14,53,8.70
2010,11,07,14,54,8.70
2010,11,07,14,55,8.70
2010,11,07,14,56,8.70
2010,11,07,14,57,8.70
2010,11,07,14,58,8.70
2010,11,07,14,59,8.70
2010,11,07,15,00,8.70
2010,11,07,15,01,8.70
2010,11,07,15,02,8.70
2010,11,07,15,03,8.70
2010,11,07,15,04,8.70
2010,11,07,15,05,8.70
2010,11,07,15,06,8.70
2010,11,07,15,07,8.70
2010,11,07,15,08,8.70
2010,11,07,15,09,8.60
2010,11,07,15,10,8.60
2010,11,07,15,11,8.60
2010,11,07,15,12,8.60
2010,11,07,15,13,8.60
2010,11,07,15,14,8.60
2010,11,07,15,15,8.60
2010,11,07,15,16,8.60
2010,11,07,15,17,8.60
2010,11,07,15,18,8.60
2010,11,07,15,19,8.60
2010,11,07,15,20,8.60
2010,11,07,15,21,8.60
2010,11,07,15,22,8.60
2010,11,07,15,23,8.50
2010,11,07,15,24,8.50
2010,11,07,15,25,8.50
2010,11,07,15,26,8.50
2010,11,07,15,27,8.60
2010,11,07,15,28,8.60
2010,11,07,15,29,8.60
2010,11,07,15,30,8.60
2010,11,07,15,31,8.60
2010,11,07,15,32,8.60
2010,11,07,15,33,8.60
2010,11,07,15,34,8.60
2010,11,07,15,35,8.60
2010,11,07,15,36,8.60
2010,11,07,15,37,8.60
2010,11,07,15,38,8.60
2010,11,07,15,39,8.60
2010,11,07,15,40,8.60
2010,11,07,15,41,8.60
2010,11,07,15,42,8.60
2010,11,07,15,43,8.50
2010,11,07,15,44,8.60
2010,11,07,15,45,8.60
2010,11,07,15,46,8.60
2010,11,07,15,47,8.60
2010,11,07,15,48,8.60
2010,11,07,15,49,8.60
2010,11,07,15,50,8.60
2010,11,07,15,51,8.60
2010,11,07,15,52,8.60
2010,11,07,15,53,8.60
2010,11,07,15,54,8.60
2010,11,07,15,55,8.60
2010,11,07,15,56,8.70
2010,11,07,15,57,8.70
2010,11,07,15,58,8.70
2010,11,07,15,59,8.60
2010,11,07,16,00,8.60
2010,11,07,16,01,8.60
2010,11,07,16,02,8.60
2010,11,07,16,03,8.50
2010,11,07,16,04,8.50
2010,11,07,16,05,8.50
2010,11,07,16,06,8.50
2010,11,07,16,07,8.50
2010,11,07,16,08,8.50
2010,11,07,16,09,8.50
2010,11,07,16,10,8.50
2010,11,07,16,11,8.50
2010,11,07,16,12,8.50
2010,11,07,16,13,8.40
2010,11,07,16,14,8.40
2010,11,07,16,15,8.40
2010,11,07,16,16,8.40
2010,11,07,16,17,8.40
2010,11,07,16,18,8.40
2010,11,07,16,19,8.30
2010,11,07,16,20,8.30
2010,11,07,16,21,8.30
2010,11,07,16,22,8.30
2010,11,07,16,23,8.30
2010,11,07,16,24,8.30
2010,11,07,16,25,8.30
2010,11,07,16,26,8.20
2010,11,07,16,27,8.20
2010,11,07,16,28,8.20
2010,11,07,16,29,8.20
2010,11,07,16,30,8.20
2010,11,07,16,31,8.20
2010,11,07,16,32,8.20
2010,11,07,16,33,8.10
2010,11,07,16,34,8.10
2010,11,07,16,35,8.10
2010,11,07,16,36,8.10
2010,11,07,16,37,8.10
2010,11,07,16,38,8.10
2010,11,07,16,39,8.10
2010,11,07,16,40,8.10
2010,11,07,16,41,8.10
2010,11,07,16,42,8.10
2010,11,07,16,43,8.10
2010,11,07,16,44,8.10
2010,11,07,16,45,8.10
2010,11,07,16,46,8.10
2010,11,07,16,47,8.10
2010,11,07,16,48,8.10
2010,11,07,16,49,8.10
2010,11,07,16,50,8.10
2010,11,07,16,51,8.10
2010,11,07,16,52,8.10
2010,11,07,16,53,8.00
2010,11,07,16,54,8.10
2010,11,07,16,55,8.00
2010,11,07,16,56,8.00
2010,11,07,16,57,8.00
2010,11,07,16,58,8.00
2010,11,07,16,59,8.00
2010,11,07,17,00,8.00
2010,11,07,17,01,8.00
2010,11,07,17,02,8.00
2010,11,07,17,03,8.00
2010,11,07,17,04,8.00
2010,11,07,17,05,8.00
2010,11,07,17,06,8.00
2010,11,07,17,07,8.00
2010,11,07,17,08,8.00
2010,11,07,17,09,8.00
2010,11,07,17,10,7.90
2010,11,07,17,11,7.90
2010,11,07,17,12,7.90
2010,11,07,17,13,7.90
2010,11,07,17,14,7.90
2010,11,07,17,15,7.90
2010,11,07,17,16,7.90
2010,11,07,17,17,7.90
2010,11,07,17,18,7.90
2010,11,07,17,19,7.90
2010,11,07,17,20,7.90
2010,11,07,17,21,7.90
2010,11,07,17,22,7.80
2010,11,07,17,23,7.80
2010,11,07,17,24,7.80
2010,11,07,17,25,7.80
2010,11,07,17,26,7.80
2010,11,07,17,27,7.80
2010,11,07,17,28,7.80
2010,11,07,17,29,7.70
2010,11,07,17,30,7.70
2010,11,07,17,31,7.70
2010,11,07,17,32,7.70
2010,11,07,17,33,7.70
2010,11,07,17,34,7.60
2010,11,07,17,35,7.60
2010,11,07,17,36,7.60
2010,11,07,17,37,7.60
2010,11,07,17,38,7.60
2010,11,07,17,39,7.60
2010,11,07,17,40,7.60
2010,11,07,17,41,7.60
2010,11,07,17,42,7.50
2010,11,07,17,43,7.50
2010,11,07,17,44,7.50
2010,11,07,17,45,7.50
2010,11,07,17,46,7.50
2010,11,07,17,47,7.50
2010,11,07,17,48,7.50
2010,11,07,17,49,7.40
2010,11,07,17,50,7.40
2010,11,07,17,51,7.40
2010,11,07,17,52,7.40
2010,11,07,17,53,7.40
2010,11,07,17,54,7.40
2010,11,07,17,55,7.40
2010,11,07,17,56,7.40
2010,11,07,17,57,7.40
2010,11,07,17,58,7.40
2010,11,07,17,59,7.40
2010,11,07,18,00,7.40
2010,11,07,18,01,7.40
2010,11,07,18,02,7.40
2010,11,07,18,03,7.40
2010,11,07,18,04,7.40
2010,11,07,18,05,7.40
2010,11,07,18,06,7.40
2010,11,07,18,07,7.40
2010,11,07,18,08,7.40
2010,11,07,18,09,7.40
2010,11,07,18,10,7.40
2010,11,07,18,11,7.40
2010,11,07,18,12,7.40
2010,11,07,18,13,7.40
2010,11,07,18,14,7.40
2010,11,07,18,15,7.40
2010,11,07,18,16,7.40
2010,11,07,18,17,7.40
2010,11,07,18,18,7.40
2010,11,07,18,19,7.40
2010,11,07,18,20,7.40